Regional Weather Roundup
Issued by NWS Grand Forks, ND

Home | Current Version | Previous Version | Text Only | Print | Product List | Glossary On
Versions: 1 2 3 4 5 6 7 8 9 10 11 12 13 14 15 16 17 18 19 20 21 22 23 24 25 26 27 28 29 30 31 32 33 34 35 36 37 38 39 40 41 42 43 44 45 46 47 48 49 50
886
ASUS43 KFGF 200331
RWRFGF
PRAIRIE TO PINES  WEATHER ROUNDUP
NATIONAL WEATHER SERVICE EASTERN NORTH DAKOTA/GRAND FORKS ND
1000 PM CDT FRI JUL 19 2019

 **SATELLITE DATA USED TO AUGMENT SKY COVER AT AUTOMATED STATIONS**
 *****  WEATHER ACROSS EASTERN NORTH DAKOTA  *****

CITY           SKY/WX    TMP DP  RH WIND       PRES   REMARKS
GRAND FORKS    FAIR      63  54  72 NW5       29.77R
GRAND FRKS AFB CLEAR     62  55  75 CALM      29.79R
GRAND FRKS NWS   N/A     67  53  59 NW2       29.75R
DEVILS LAKE    FAIR      65  51  60 W5        29.82R
FARGO          FAIR      70  62  76 CALM      29.78R
WAHPETON ARPT  FAIR      72  61  68 N10       29.80R
$$

 ***** WEATHER ACROSS CENTRAL AND WESTERN NORTH DAKOTA  *****

CITY           SKY/WX    TMP DP  RH WIND       PRES   REMARKS
BISMARCK       FAIR      69  56  62 E5        29.83R
MINOT          FAIR      71  44  37 W8        29.81R
JAMESTOWN      FAIR      68  64  87 CALM      29.81R
MINOT AFB      FAIR      63  50  63 SW8       29.79R
GARRISON         N/A     67  55  65 NW6       29.82R
WILLISTON      FAIR      58  50  75 W5        29.81S
DICKINSON      FAIR      67  48  50 CALM      29.85R
HETTINGER      FAIR      65  57  75 NE6       29.88R
$$

 *****  OTHER AIRPORT OBSERVATIONS IN OUR AREA  *****

CITY           SKY/WX    TMP DP  RH WIND       PRES   REMARKS
WALHALLA       FAIR      63  55  77 SW3       29.78R
GRAFTON AIRPOR FAIR      64  55  72 W6        29.81R
VALLEY CITY AR FAIR      64  61  88 NW6       29.84R
CANDO          FAIR      61  55  82 SW3       29.83R
CAVALIER APRT  FAIR      59  52  77 S5        29.78R
GWINNER          N/A     70  66  88 CALM      29.81R
SHEYENNE NWR     N/A     73  64  73 N3        29.95S
ROLLA          FAIR      57  54  88 SW8       29.81R
 ***** THE ABOVE OBSERVATIONS ARE NON NWS ARE NOT QUALITY
       CONTROLLED AND MAY MIS-REPORT RAIN FOR SNOW...
$$

  *****  WEATHER ACROSS NORTHERN MINNESOTA  *****

CITY           SKY/WX    TMP DP  RH WIND       PRES   REMARKS
FLAG ISLAND      N/A     70  52  52 W8        29.74R
WARROAD        FAIR      64  54  68 W6        29.77R
ROSEAU         FAIR      66  57  72 W5        29.78R
HALLOCK        FAIR      64  55  72 W3        29.78R
THF RVR FALLS  FAIR      65  52  62 NW7       29.79R
BAUDETTE       FAIR      67  53  61 W7        29.75R
WASKISH          N/A     73  55  53 W12G20    29.76R
CROOKSTON      FAIR      64  55  72 NW3       29.80R
STEPHEN NDAWN    N/A     63  54  72 W3          N/A
GREENBUSH NDAW   N/A     59  55  88 SW3         N/A
$$
  *****  WEATHER ACROSS CENTRAL AND WEST MINNESOTA  *****

CITY           SKY/WX    TMP DP  RH WIND       PRES   REMARKS
FOSSTON        FAIR      59  54  82 CALM      29.82R
BEMIDJI        FAIR      68  62  81 W6        29.80R
PARK RAPIDS    FAIR      68  64  87 NW3       29.80R
ELBOW LAKE     NOT AVBL
WADENA         FAIR      66  64  94 CALM      29.81R
DETROIT LAKES  FAIR      72  59  64 N3        29.82R
MOORHEAD       FAIR      66  59  77 N5        29.80R
FERGUS FALLS   FAIR      72  66  83 N3        29.79R
MORRIS MN      FAIR      73  72  94 N6        29.74R
STAPLES        FAIR      68  63  83 NW3       29.80R
$$
  *****  WEATHER ELSEWHERE ACROSS MINNESOTA  *****

CITY           SKY/WX    TMP DP  RH WIND       PRES   REMARKS
DULUTH         FAIR      68  60  75 N5        29.74R
INTRNTL FALLS  FAIR      68  66  93 W3        29.72R
ELY            FAIR      63  63 100 CALM      29.76R
CLOQUET        FAIR      64  61  88 NW3       29.75R
WHEATON        FAIR      73  66  78 N3        29.80R
BRAINERD       FAIR      74  66  76 CALM      29.76R
HIBBING        FAIR      61  60  97 CALM      29.76R
ALEXANDRIA     FAIR      75  68  78 N6        29.80R
SAINT CLOUD    FAIR      72  66  81 N5        29.74R
MINNEAPOLIS    MOCLDY    83  73  72 NE3       29.69R
$$

  *****  WEATHER ACROSS SOUTH DAKOTA  *****

CITY           SKY/WX    TMP DP  RH WIND       PRES   REMARKS
SIOUX FALLS    MOCLDY    85  78  80 N6        29.72R HX  96
BROOKINGS      FAIR      76  73  91 N9        29.78R
WATERTOWN      FAIR      72  70  93 N8        29.78R
HURON          FAIR      79  72  79 MISG      29.75R
SISSETON         N/A     72  71  97 N3        29.78R
ABERDEEN       FAIR      76  65  68 N7        29.78R
MITCHELL       FAIR      81  74  79 N7        29.74R
PIERRE         FAIR      75  69  81 E7        29.76R
MOBRIDGE       FAIR      69  60  73 N7        29.79R
RAPID CITY     MOCLDY    74  66  76 E9        29.83S
$$

  *****  SOME WEATHER IN NEARBY STATES *****

CITY           SKY/WX    TMP DP  RH WIND       PRES   REMARKS
GLASGOW MT     FAIR      70  35  27 NW9       29.83R
GREAT FALLS MT FAIR      61  32  33 NW12      29.96R
CHEYENNE WY    FAIR      78  42  27 NW5       29.98R
SCOTTSBLUFF NE FAIR      83  63  50 SE13      29.80S
OMAHA NE       FAIR      91  78  65 S13       29.71R HX 106
DES MOINES IA  FAIR      88  76  67 S9        29.75R HX  99
DAVENPORT IA   FAIR      87  77  72 S14G25    29.80R HX  99
CHICAGO IL     FAIR      88  76  67 S13G22    29.82R HX  99
EAU CLAIRE WI    N/A    N/A N/A N/A MISG      29.70R
LA CROSSE WI   FAIR      89  79  72 S7        29.69R HX 104
$$

  *****  SOME NATIONAL WEATHER *****

CITY           SKY/WX    TMP DP  RH WIND       PRES   REMARKS
LA GUARDIA NY  FAIR      90  74  59 SW12      29.83S HX  99
RALEIGH NC     FAIR      82  71  69 SW9       30.01R
ATLANTA GA     MOCLDY    74  71  91 S7        30.12R
NEW ORLEANS LA MOCLDY    85  76  74 S6        30.03S HX  94
OKLAHOMA CITY  FAIR      82  68  62 S10       29.87R
ALBUQUERQUE NM FAIR      86  45  23 S14       30.02R
SALT LAKE CITY MOCLDY    87  43  21 N5        29.81F
LOS ANGELES CA FAIR      67  59  75 W13       29.89F
BOISE ID       FAIR      77  21  12 NW9       29.92S
SEATTLE WA     FAIR      68  45  43 N13       30.10F
$$

*** WEATHER ACROSS MANITOBA...SASKATCHEWAN AND ONTARIO ***
                ***ONTARIO***

CITY           SKY/WX    TMP DP  RH WIND       PRES   REMARKS
GERALDTON      MOCLDY    70  57  64 S7        29.64F
THUNDER BAY    MOCLDY    66  64  94 SW3       29.70R
SIOUX LOOKOUT  PTCLDY    66  61  82 SW6       29.65R
TORONTO        MOCLDY    79  73  83 S9        29.82S
BIG TROUT LK   LGT RAIN  57  57 100 N5        29.61R
PICKLE LAKE    NOT AVBL
DRYDEN         CLEAR     68  54  60 W7        29.69R
KENORA         PTCLDY    68  52  56 NW6       29.73R
$$
                *** MANITOBA***

CITY           SKY/WX    TMP DP  RH WIND       PRES   REMARKS
BRANDON        PTCLDY    57  52  82 NW7       29.74R
DAUPHIN        MOCLDY    61  55  82 W8        29.70R
ISLAND LAKE    LGT RAIN  59  55  88 NE3       29.66R
PILOT MOUND      N/A     57  52  82 SW7         N/A
THE PAS        CLEAR     61  57  88 NW3       29.69R
THOMPSON       MOCLDY    57  48  72 NE7       29.77R
WINNIPEG       PTCLDY    66  54  63 SW8       29.72R
LYNN LAKE      CLEAR     54  50  87 VRB2      29.82R
CHURCHILL      PTCLDY    50  45  81 NW6       29.78S
GILLAM         MOCLDY    57  46  67 NE10      29.76
$$
                ***SASKATCHEWAN***

CITY           SKY/WX    TMP DP  RH WIND       PRES   REMARKS
ESTEVAN        CLEAR     61  50  67 W6        29.79R
KINDERSLEY     MOCLDY    54  54 100 W6G23     29.80R
LLOYDMINSTER   TSTM      57  55  94 NW8       29.80R
PRINCE ALBERT  MOCLDY    61  57  88 N5        29.75R
REGINA         MOCLDY    59  48  67 SW13G24   29.83R
YORKTON        LGT RAIN  59  57  94 W13       29.72R
N. BATTLEFORD  MOCLDY    57  54  88 NW7       29.79R
LA RONGE       PTCLDY    63  54  72 N14       29.80R
SASKATOON      LGT RAIN  57  57 100 W8        29.76R
SWIFT CURRENT  CLOUDY    54  46  76 SW8       29.85R
$$
NOTE: THESE ARE AUTOMATED STATIONS WITH LIMITED QUALITY CONTROL
      "FAIR" INDICATES FEW OR NO CLOUDS BELOW 12,000 FEET WITH NO
      SIGNIFICANT WEATHER AND/OR OBSTRUCTIONS TO VISIBILITY.
      SKY/WX - SKY CONDITION AND SIGNIFICANT WEATHER.
      TMP - AIR TEMPERATURE.    DP   - DEWPOINT TEMPERATURE.
      RH  - RELATIVE HUMIDITY.  PRES - PRESSURE.
      HX  - HEAT INDEX.         WCI  - WIND CHILL INDEX.
$




USA.gov is the U.S. government's official web portal to all federal, state and local government web resources and services.